Brunswick, GA

5:29 AM EDT on August 18, 2017 (GMT -0400)
Glynco Jetport

Weather History for KBQK - October, 2012

Change the Weather History Date:

Wednesday, October 31, 2012

  Actual Average Record
Temperature  
Mean Temperature 58 °F -  
Max Temperature 71 °F 75 °F 132 °F (2004)
Min Temperature 46 °F 57 °F 39 °F (1993)
Degree Days  
Heating Degree Days 6    
Growing Degree Days 8 (Base 50)    
Moisture  
Dew Point 37 °F    
Average Humidity 50    
Maximum Humidity 71    
Minimum Humidity 27    
Precipitation  
Precipitation 0.00 in - - ()
Sea Level Pressure  
Sea Level Pressure 29.91 in    
Wind  
Wind Speed 10 mph (WSW)    
Max Wind Speed 21 mph    
Max Gust Speed 29 mph    
Visibility 10 miles    
Events      
Averages and records for this station are not official NWS values.
T = Trace of Precipitation, MM = Missing Value Source: NWS Daily Summary

Daily Weather History Graph

Daily Weather History Graph

Search for Another Location

Airport or City:

Trip Planner

Search our weather history database for the weather conditions in past years. The results will help you decide how hot, cold, wet, or windy it might be!

Date:

Astronomy

Oct. 31, 2012 Rise Set
Actual Time 7:41 AM EDT 6:37 PM EDT
Civil Twilight 7:16 AM EDT 7:02 PM EDT
Nautical Twilight 6:47 AM EDT 7:31 PM EDT
Astronomical Twilight 6:19 AM EDT 7:59 PM EDT
Moon 7:55 PM EDT (10/31) 9:14 AM EDT (10/31)
Length of Visible Light 11h 46m
Length of Day
10h 56m
Full, 97% of the Moon is Illuminated
Oct 31
Full
Nov 6
Last Quarter
Nov 13
New
Nov 20
First Quarter
Nov 28
Full

Hourly Weather History & Observations

Time (EDT) Temp. Windchill Dew Point Humidity Pressure Visibility Wind Dir Wind Speed Gust Speed Precip Events Conditions
12:15 AM 51.8 °F - 33.8 °F 50% 29.87 in 10.0 mi WSW 8.1 mph - N/A   Clear
12:35 AM 51.8 °F - 33.8 °F 50% 29.88 in 10.0 mi WSW 9.2 mph - N/A   Clear
12:55 AM 51.8 °F - 33.8 °F 50% 29.88 in 10.0 mi West 8.1 mph - N/A   Clear
1:15 AM 51.8 °F - 33.8 °F 50% 29.88 in 10.0 mi WSW 9.2 mph - N/A   Clear
1:35 AM 51.8 °F - 33.8 °F 50% 29.88 in 10.0 mi WSW 9.2 mph - N/A   Clear
1:55 AM 51.8 °F - 33.8 °F 50% 29.89 in 10.0 mi WSW 12.7 mph 17.3 mph N/A   Clear
2:15 AM 51.8 °F - 33.8 °F 50% 29.89 in 10.0 mi WSW 6.9 mph - N/A   Clear
2:35 AM 50.0 °F - 35.6 °F 58% 29.89 in 10.0 mi WSW 9.2 mph - N/A   Clear
2:55 AM 50.0 °F - 35.6 °F 58% 29.89 in 10.0 mi WSW 9.2 mph - N/A   Clear
3:15 AM 50.0 °F - 35.6 °F 58% 29.89 in 10.0 mi WSW 9.2 mph - N/A   Clear
3:35 AM 50.0 °F - 35.6 °F 58% 29.89 in 10.0 mi WSW 6.9 mph - N/A   Clear
3:55 AM 50.0 °F - 35.6 °F 58% 29.90 in 10.0 mi WSW 8.1 mph - N/A   Clear
4:15 AM 50.0 °F - 35.6 °F 58% 29.90 in 10.0 mi WSW 8.1 mph - N/A   Clear
4:35 AM 50.0 °F - 35.6 °F 58% 29.89 in 10.0 mi West 6.9 mph - N/A   Clear
4:55 AM 50.0 °F - 35.6 °F 58% 29.89 in 10.0 mi WSW 8.1 mph - N/A   Clear
5:15 AM 48.2 °F - 35.6 °F 62% 29.90 in 10.0 mi WSW 5.8 mph - N/A   Clear
5:35 AM 46.4 °F 43.5 °F 37.4 °F 71% 29.90 in 10.0 mi WSW 5.8 mph - N/A   Clear
5:55 AM 46.4 °F 42.9 °F 37.4 °F 71% 29.90 in 10.0 mi WSW 6.9 mph - N/A   Clear
6:15 AM 48.2 °F - 37.4 °F 66% 29.91 in 10.0 mi WSW 8.1 mph - N/A   Clear
6:35 AM 50.0 °F - 37.4 °F 62% 29.92 in 10.0 mi WSW 6.9 mph - N/A   Clear
6:55 AM 50.0 °F - 37.4 °F 62% 29.93 in 10.0 mi WSW 10.4 mph - N/A   Clear
7:15 AM 50.0 °F - 37.4 °F 62% 29.93 in 10.0 mi WSW 8.1 mph - N/A   Clear
7:35 AM 48.2 °F - 37.4 °F 66% 29.93 in 10.0 mi West 9.2 mph - N/A   Clear
7:55 AM 46.4 °F 43.5 °F 37.4 °F 71% 29.94 in 10.0 mi WSW 5.8 mph - N/A   Clear
8:15 AM 48.2 °F - 39.2 °F 71% 29.95 in 10.0 mi WSW 5.8 mph - N/A   Clear
8:35 AM 50.0 °F - 39.2 °F 66% 29.95 in 10.0 mi WSW 9.2 mph - N/A   Clear
8:55 AM 50.0 °F - 37.4 °F 62% 29.96 in 10.0 mi WSW 8.1 mph - N/A   Clear
9:15 AM 51.8 °F - 37.4 °F 58% 29.96 in 10.0 mi WSW 8.1 mph - N/A   Clear
9:35 AM 53.6 °F - 39.2 °F 58% 29.96 in 10.0 mi West 6.9 mph - N/A   Clear
9:55 AM 55.4 °F - 39.2 °F 54% 29.96 in 10.0 mi WSW 10.4 mph - N/A   Clear
10:15 AM 57.2 °F - 39.2 °F 51% 29.96 in 10.0 mi West 10.4 mph 17.3 mph N/A   Clear
10:35 AM 59.0 °F - 39.2 °F 48% 29.95 in 10.0 mi West 9.2 mph - N/A   Clear
10:55 AM 60.8 °F - 37.4 °F 42% 29.95 in 10.0 mi West 11.5 mph 21.9 mph N/A   Clear
11:15 AM 62.6 °F - 37.4 °F 39% 29.95 in 10.0 mi West 13.8 mph 20.7 mph N/A   Clear
11:35 AM 62.6 °F - 37.4 °F 39% 29.95 in 10.0 mi West 13.8 mph 20.7 mph N/A   Clear
11:55 AM 64.4 °F - 35.6 °F 34% 29.94 in 10.0 mi West 15.0 mph 21.9 mph N/A   Clear
12:15 PM 66.2 °F - 37.4 °F 35% 29.93 in 10.0 mi West 12.7 mph 21.9 mph N/A   Clear
12:35 PM 68.0 °F - 35.6 °F 30% 29.92 in 10.0 mi West 18.4 mph 26.5 mph N/A   Clear
12:55 PM 68.0 °F - 35.6 °F 30% 29.91 in 10.0 mi West 18.4 mph 26.5 mph N/A   Clear
1:15 PM 69.8 °F - 37.4 °F 31% 29.90 in 10.0 mi West 12.7 mph 23.0 mph N/A   Clear
1:35 PM 69.8 °F - 35.6 °F 28% 29.89 in 10.0 mi West 13.8 mph 27.6 mph N/A   Clear
1:55 PM 71.6 °F - 37.4 °F 29% 29.89 in 10.0 mi West 18.4 mph 27.6 mph N/A   Clear
2:15 PM 71.6 °F - 35.6 °F 27% 29.88 in 10.0 mi West 16.1 mph 26.5 mph N/A   Clear
2:35 PM 71.6 °F - 37.4 °F 29% 29.88 in 10.0 mi West 19.6 mph 28.8 mph N/A   Clear
2:55 PM 71.6 °F - 37.4 °F 29% 29.86 in 10.0 mi WNW 13.8 mph 23.0 mph N/A   Clear
3:15 PM 71.6 °F - 37.4 °F 29% 29.86 in 10.0 mi West 13.8 mph 23.0 mph N/A   Clear
3:35 PM 71.6 °F - 37.4 °F 29% 29.86 in 10.0 mi West 20.7 mph 26.5 mph N/A   Clear